AAL2616 MKJS-KMIA

Flight info

Callsign AAL2616
Flight time 1h 15m
Altitude 34000
Route ALTIB UM779 ZEUSS VIICE2
Aircraft A321/M-SDE3FGHIRWY/LB1

Departure

Time 2026-05-03 20:15
Airport Sangster International Airport (MKJS)

Arrival

Time 2026-05-03 21:31
Airport Miami International Airport (KMIA)
Time Latitude Longitude Altitude Speed Heading
2026-05-03 20:15 18.60200 -77.85752 4181 ft 265 kts 352°
2026-05-03 20:15 18.62046 -77.86054 4911 ft 271 kts 351°
2026-05-03 20:15 18.63930 -77.86366 5654 ft 277 kts 352°
2026-05-03 20:15 18.65855 -77.86687 6370 ft 282 kts 352°
2026-05-03 20:16 18.67807 -77.87012 7076 ft 286 kts 351°
2026-05-03 20:16 18.69794 -77.87342 7801 ft 290 kts 352°
2026-05-03 20:16 18.71804 -77.87675 8517 ft 294 kts 352°
2026-05-03 20:16 18.73811 -77.88007 9217 ft 298 kts 352°
2026-05-03 20:17 18.75870 -77.88349 9934 ft 301 kts 353°
2026-05-03 20:17 18.77982 -77.88699 10303 ft 318 kts 352°
2026-05-03 20:17 18.80247 -77.89069 10447 ft 340 kts 352°
2026-05-03 20:17 18.82647 -77.89462 10722 ft 355 kts 352°
2026-05-03 20:18 18.85106 -77.89866 11284 ft 360 kts 352°
2026-05-03 20:18 18.87589 -77.90276 11913 ft 363 kts 351°
2026-05-03 20:18 18.90098 -77.90693 12532 ft 366 kts 351°
2026-05-03 20:18 18.92618 -77.91114 13172 ft 368 kts 351°
2026-05-03 20:19 18.95125 -77.91532 13798 ft 371 kts 351°
2026-05-03 20:19 18.97682 -77.91956 14343 ft 374 kts 351°
2026-05-03 20:19 19.00263 -77.92380 14875 ft 377 kts 351°
2026-05-03 20:19 19.02868 -77.92807 15402 ft 381 kts 351°
2026-05-03 20:20 19.05500 -77.93242 15920 ft 384 kts 351°
2026-05-03 20:20 19.08147 -77.93682 16467 ft 387 kts 351°
2026-05-03 20:20 19.10827 -77.94127 17005 ft 390 kts 351°
2026-05-03 20:20 19.13515 -77.94572 17541 ft 393 kts 351°
2026-05-03 20:21 19.16194 -77.95018 18066 ft 397 kts 351°
2026-05-03 20:21 19.18932 -77.95473 18553 ft 400 kts 351°
2026-05-03 20:21 19.21696 -77.95930 18993 ft 403 kts 351°
2026-05-03 20:21 19.24474 -77.96386 19460 ft 406 kts 351°
2026-05-03 20:22 19.27287 -77.96847 19882 ft 410 kts 350°
2026-05-03 20:22 19.30122 -77.97315 20317 ft 414 kts 350°
2026-05-03 20:22 19.32986 -77.97790 20728 ft 419 kts 351°
2026-05-03 20:22 19.35872 -77.98272 21162 ft 422 kts 349°
2026-05-03 20:23 19.38750 -77.98752 21555 ft 426 kts 350°
2026-05-03 20:23 19.41683 -77.99243 21973 ft 429 kts 350°
2026-05-03 20:23 19.44645 -77.99740 22379 ft 432 kts 350°
2026-05-03 20:23 19.47628 -78.00240 22772 ft 435 kts 350°
2026-05-03 20:24 19.50628 -78.00741 23154 ft 438 kts 349°
2026-05-03 20:24 19.53648 -78.01242 23529 ft 441 kts 349°
2026-05-03 20:24 19.56691 -78.01746 23844 ft 444 kts 349°
2026-05-03 20:24 19.59754 -78.02253 24171 ft 446 kts 349°
2026-05-03 20:25 19.62825 -78.02762 24510 ft 448 kts 349°
2026-05-03 20:25 19.65916 -78.03279 24840 ft 450 kts 349°
2026-05-03 20:25 19.69015 -78.03800 25173 ft 452 kts 349°
2026-05-03 20:25 19.72083 -78.04315 25495 ft 453 kts 349°
2026-05-03 20:26 19.75205 -78.04838 25835 ft 455 kts 349°
2026-05-03 20:26 19.78340 -78.05365 26170 ft 457 kts 349°
2026-05-03 20:26 19.81488 -78.05891 26487 ft 459 kts 349°
2026-05-03 20:26 19.84649 -78.06417 26820 ft 461 kts 349°
2026-05-03 20:27 19.87825 -78.06944 27144 ft 463 kts 349°
2026-05-03 20:27 19.91009 -78.07476 27468 ft 465 kts 349°
2026-05-03 20:27 19.94212 -78.08013 27781 ft 467 kts 349°
2026-05-03 20:27 19.97424 -78.08554 28101 ft 469 kts 349°
2026-05-03 20:28 20.00607 -78.09088 28401 ft 470 kts 349°
2026-05-03 20:28 20.03849 -78.09633 28701 ft 472 kts 349°
2026-05-03 20:28 20.07104 -78.10178 29003 ft 474 kts 348°
2026-05-03 20:28 20.10374 -78.10725 29312 ft 476 kts 348°
2026-05-03 20:29 20.13653 -78.11277 29615 ft 478 kts 348°
2026-05-03 20:29 20.16951 -78.11830 29919 ft 481 kts 348°
2026-05-03 20:29 20.20254 -78.12383 30194 ft 482 kts 348°
2026-05-03 20:29 20.23539 -78.12931 30462 ft 483 kts 348°
2026-05-03 20:30 20.26855 -78.13483 30839 ft 481 kts 348°
2026-05-03 20:30 20.30155 -78.14035 31231 ft 479 kts 348°
2026-05-03 20:30 20.33438 -78.14589 31620 ft 477 kts 348°
2026-05-03 20:30 20.36708 -78.15142 32012 ft 475 kts 348°
2026-05-03 20:31 20.39960 -78.15692 32399 ft 473 kts 348°
2026-05-03 20:31 20.43205 -78.16242 32804 ft 471 kts 348°
2026-05-03 20:31 20.46437 -78.16790 33197 ft 469 kts 348°
2026-05-03 20:31 20.49614 -78.17324 33586 ft 467 kts 348°
2026-05-03 20:32 20.52818 -78.17858 33918 ft 466 kts 348°
2026-05-03 20:32 20.59163 -78.18922 34006 ft 457 kts 347°
2026-05-03 20:33 20.65426 -78.19989 34000 ft 455 kts 347°
2026-05-03 20:33 20.71665 -78.21050 34000 ft 454 kts 347°
2026-05-03 20:34 20.77867 -78.22099 33998 ft 454 kts 347°
2026-05-03 20:34 20.84103 -78.23155 34001 ft 454 kts 347°
2026-05-03 20:35 20.90338 -78.24210 34006 ft 454 kts 347°
2026-05-03 20:35 20.96586 -78.25266 34016 ft 455 kts 347°
2026-05-03 20:36 21.02792 -78.26320 34016 ft 455 kts 347°
2026-05-03 20:36 21.09042 -78.27379 34017 ft 455 kts 347°
2026-05-03 20:37 21.15287 -78.28446 34020 ft 455 kts 347°
2026-05-03 20:37 21.21537 -78.29505 34020 ft 455 kts 347°
2026-05-03 20:38 21.27790 -78.30572 34026 ft 455 kts 347°
2026-05-03 20:38 21.33993 -78.31643 34022 ft 455 kts 347°
2026-05-03 20:39 21.40241 -78.32705 34035 ft 455 kts 346°
2026-05-03 20:39 21.46496 -78.33770 34026 ft 455 kts 346°
2026-05-03 20:40 21.52750 -78.34842 34021 ft 455 kts 346°
2026-05-03 20:40 21.58966 -78.35907 34020 ft 456 kts 346°
2026-05-03 20:41 21.65229 -78.36969 34019 ft 456 kts 346°
2026-05-03 20:41 21.71497 -78.38043 34016 ft 456 kts 346°
2026-05-03 20:42 21.77761 -78.39122 34021 ft 456 kts 346°
2026-05-03 20:42 21.83995 -78.40201 34017 ft 457 kts 346°
2026-05-03 20:43 21.90269 -78.41277 34013 ft 457 kts 346°
2026-05-03 20:43 21.96552 -78.42352 34013 ft 457 kts 346°
2026-05-03 20:44 22.02832 -78.43434 34016 ft 457 kts 346°
2026-05-03 20:44 22.09070 -78.44512 34026 ft 457 kts 346°
2026-05-03 20:45 22.15348 -78.45594 34024 ft 457 kts 346°
2026-05-03 20:45 22.21623 -78.46677 34020 ft 457 kts 346°
2026-05-03 20:46 22.27898 -78.47761 34023 ft 457 kts 346°
2026-05-03 20:46 22.34135 -78.48840 34025 ft 457 kts 346°
2026-05-03 20:47 22.40409 -78.49925 34039 ft 457 kts 345°
2026-05-03 20:47 22.46694 -78.51018 34025 ft 458 kts 345°
2026-05-03 20:48 22.52995 -78.52107 34022 ft 459 kts 345°
2026-05-03 20:48 22.59308 -78.53202 34032 ft 459 kts 345°
2026-05-03 20:49 22.65581 -78.54292 34030 ft 460 kts 345°
2026-05-03 20:49 22.71897 -78.55398 34042 ft 460 kts 345°
2026-05-03 20:50 22.78218 -78.56503 34028 ft 460 kts 345°
2026-05-03 20:50 22.84522 -78.57661 34030 ft 459 kts 344°
2026-05-03 20:51 22.90818 -78.58869 34030 ft 459 kts 344°
2026-05-03 20:51 22.97077 -78.60064 34028 ft 460 kts 344°
2026-05-03 20:52 23.03377 -78.61247 34046 ft 460 kts 344°
2026-05-03 20:52 23.09675 -78.62430 34038 ft 459 kts 344°
2026-05-03 20:53 23.15920 -78.63610 34031 ft 458 kts 344°
2026-05-03 20:53 23.22206 -78.64799 34028 ft 458 kts 344°
2026-05-03 20:54 23.28485 -78.65986 34028 ft 458 kts 344°
2026-05-03 20:54 23.37902 -78.67766 34050 ft 458 kts 343°
2026-05-03 20:55 23.44140 -78.68944 34044 ft 458 kts 343°
2026-05-03 20:55 23.50413 -78.70134 34035 ft 458 kts 343°
2026-05-03 20:56 23.56694 -78.71326 34031 ft 458 kts 343°
2026-05-03 20:56 23.62973 -78.72530 34026 ft 458 kts 343°
2026-05-03 20:57 23.69214 -78.73715 34042 ft 458 kts 343°
2026-05-03 20:57 23.75482 -78.74903 34041 ft 457 kts 343°
2026-05-03 20:58 23.81742 -78.76086 34039 ft 456 kts 343°
2026-05-03 20:58 23.87987 -78.77274 34035 ft 456 kts 343°
2026-05-03 20:59 23.94233 -78.78466 34034 ft 455 kts 343°
2026-05-03 20:59 24.00283 -78.80068 34052 ft 443 kts 330°
2026-05-03 21:00 24.03881 -78.82120 34046 ft 433 kts 321°
2026-05-03 21:00 24.10741 -78.86669 34041 ft 433 kts 321°
2026-05-03 21:01 24.15904 -78.90087 34037 ft 433 kts 321°
2026-05-03 21:01 24.21062 -78.93503 34036 ft 433 kts 321°
2026-05-03 21:02 24.26190 -78.96897 34038 ft 433 kts 322°
2026-05-03 21:02 24.31329 -79.00302 34037 ft 433 kts 322°
2026-05-03 21:03 24.36507 -79.03732 34037 ft 433 kts 322°
2026-05-03 21:03 24.41661 -79.07153 34049 ft 433 kts 321°
2026-05-03 21:04 24.46787 -79.10583 34047 ft 431 kts 321°
2026-05-03 21:04 24.51897 -79.13997 34049 ft 429 kts 321°
2026-05-03 21:05 24.56968 -79.17376 33944 ft 429 kts 321°
2026-05-03 21:05 24.59510 -79.19071 33677 ft 427 kts 321°
2026-05-03 21:05 24.62041 -79.20757 33229 ft 423 kts 321°
2026-05-03 21:06 24.64542 -79.22426 32715 ft 420 kts 321°
2026-05-03 21:06 24.67031 -79.24089 32200 ft 418 kts 321°
2026-05-03 21:06 24.69511 -79.25745 31683 ft 415 kts 321°
2026-05-03 21:06 24.71971 -79.27390 31158 ft 414 kts 321°
2026-05-03 21:07 24.74436 -79.29041 30620 ft 416 kts 321°
2026-05-03 21:07 24.76911 -79.30701 30094 ft 418 kts 321°
2026-05-03 21:07 24.79360 -79.32341 29484 ft 416 kts 321°
2026-05-03 21:07 24.81822 -79.33986 28957 ft 413 kts 321°
2026-05-03 21:08 24.84267 -79.35622 28374 ft 411 kts 321°
2026-05-03 21:08 24.86705 -79.37254 27801 ft 409 kts 322°
2026-05-03 21:08 24.89124 -79.38876 27242 ft 407 kts 322°
2026-05-03 21:08 24.91535 -79.40496 26668 ft 406 kts 322°
2026-05-03 21:09 24.93942 -79.42117 26114 ft 404 kts 322°
2026-05-03 21:09 24.96336 -79.43731 25573 ft 404 kts 322°
2026-05-03 21:09 24.98736 -79.45346 24987 ft 404 kts 322°
2026-05-03 21:09 25.01098 -79.46936 24454 ft 403 kts 322°
2026-05-03 21:10 25.03482 -79.48541 23913 ft 402 kts 323°
2026-05-03 21:10 25.05867 -79.50146 23471 ft 399 kts 323°
2026-05-03 21:10 25.08237 -79.51739 22884 ft 398 kts 323°
2026-05-03 21:10 25.10588 -79.53317 22361 ft 395 kts 323°
2026-05-03 21:11 25.12923 -79.54889 21941 ft 391 kts 323°
2026-05-03 21:11 25.15241 -79.56452 21462 ft 388 kts 323°
2026-05-03 21:11 25.17537 -79.58003 20916 ft 387 kts 323°
2026-05-03 21:11 25.19823 -79.59545 20428 ft 384 kts 323°
2026-05-03 21:12 25.22065 -79.61059 19998 ft 380 kts 324°
2026-05-03 21:12 25.24322 -79.62582 19441 ft 380 kts 324°
2026-05-03 21:12 25.26561 -79.64095 18971 ft 377 kts 324°
2026-05-03 21:12 25.28792 -79.65603 18543 ft 374 kts 324°
2026-05-03 21:13 25.31010 -79.67105 18007 ft 372 kts 324°
2026-05-03 21:13 25.33208 -79.68594 17388 ft 369 kts 324°
2026-05-03 21:13 25.35379 -79.70066 16860 ft 364 kts 324°
2026-05-03 21:13 25.37508 -79.71544 16304 ft 357 kts 320°
2026-05-03 21:14 25.39331 -79.73324 15847 ft 345 kts 308°
2026-05-03 21:14 25.40772 -79.75411 15598 ft 342 kts 301°
2026-05-03 21:14 25.42153 -79.77571 15294 ft 342 kts 302°
2026-05-03 21:14 25.43505 -79.79680 15002 ft 341 kts 302°
2026-05-03 21:15 25.44876 -79.81813 14706 ft 339 kts 302°
2026-05-03 21:15 25.46240 -79.83933 14408 ft 338 kts 302°
2026-05-03 21:15 25.47663 -79.86146 14115 ft 337 kts 302°
2026-05-03 21:15 25.48958 -79.88161 13677 ft 337 kts 302°
2026-05-03 21:16 25.50322 -79.90287 12991 ft 337 kts 302°
2026-05-03 21:16 25.51667 -79.92384 12429 ft 332 kts 302°
2026-05-03 21:16 25.52998 -79.94456 11848 ft 326 kts 302°
2026-05-03 21:16 25.54273 -79.96437 11721 ft 307 kts 302°
2026-05-03 21:17 25.55484 -79.98323 11457 ft 295 kts 302°
2026-05-03 21:17 25.56260 -79.99539 11198 ft 291 kts 302°
2026-05-03 21:17 25.57781 -80.01929 11005 ft 285 kts 302°
2026-05-03 21:17 25.58921 -80.03725 10907 ft 286 kts 302°
2026-05-03 21:18 25.60068 -80.05528 10559 ft 285 kts 302°
2026-05-03 21:18 25.61206 -80.07312 10239 ft 282 kts 302°
2026-05-03 21:18 25.62335 -80.09079 9901 ft 280 kts 302°
2026-05-03 21:18 25.63461 -80.10843 9561 ft 278 kts 302°
2026-05-03 21:19 25.64575 -80.12589 9238 ft 277 kts 302°
2026-05-03 21:19 25.65617 -80.14373 8924 ft 274 kts 294°
2026-05-03 21:19 25.66423 -80.16278 8687 ft 273 kts 292°
2026-05-03 21:19 25.67227 -80.18177 8450 ft 272 kts 292°
2026-05-03 21:20 25.68029 -80.20065 8201 ft 271 kts 292°
2026-05-03 21:20 25.68819 -80.21924 7950 ft 270 kts 292°
2026-05-03 21:20 25.69618 -80.23804 7682 ft 268 kts 292°
2026-05-03 21:20 25.70410 -80.25666 7407 ft 267 kts 292°
2026-05-03 21:21 25.71026 -80.27593 7139 ft 264 kts 279°
2026-05-03 21:21 25.71162 -80.29602 6875 ft 260 kts 265°
2026-05-03 21:21 25.71057 -80.31605 6613 ft 261 kts 265°
2026-05-03 21:21 25.70960 -80.33607 6327 ft 259 kts 265°
2026-05-03 21:22 25.70875 -80.35546 5978 ft 258 kts 266°
2026-05-03 21:22 25.70806 -80.37590 5617 ft 258 kts 266°
2026-05-03 21:22 25.70721 -80.39572 5248 ft 257 kts 266°
2026-05-03 21:22 25.70610 -80.41515 4943 ft 254 kts 265°
2026-05-03 21:23 25.70480 -80.43444 4635 ft 252 kts 265°
2026-05-03 21:23 25.70337 -80.45401 4257 ft 254 kts 265°
2026-05-03 21:23 25.70185 -80.47356 3891 ft 256 kts 264°
2026-05-03 21:23 25.70027 -80.49330 3528 ft 258 kts 264°
2026-05-03 21:24 25.69865 -80.51308 3228 ft 255 kts 264°
2026-05-03 21:24 25.69750 -80.53241 3071 ft 248 kts 273°
2026-05-03 21:24 25.70282 -80.55008 2987 ft 241 kts 304°
2026-05-03 21:24 25.71531 -80.56149 2993 ft 231 kts 336°
2026-05-03 21:25 25.73058 -80.56517 3017 ft 228 kts 350°
2026-05-03 21:25 25.74593 -80.56642 2994 ft 215 kts
2026-05-03 21:25 25.75985 -80.56148 3020 ft 212 kts 30°
2026-05-03 21:25 25.77048 -80.55082 3002 ft 205 kts 53°
2026-05-03 21:26 25.77619 -80.53659 3000 ft 202 kts 78°
2026-05-03 21:26 25.77733 -80.52121 3001 ft 200 kts 88°
2026-05-03 21:26 25.77797 -80.50583 3000 ft 199 kts 87°
2026-05-03 21:26 25.77863 -80.49042 2987 ft 201 kts 88°
2026-05-03 21:27 25.77929 -80.47500 2816 ft 200 kts 88°
2026-05-03 21:27 25.77994 -80.45990 2586 ft 196 kts 87°
2026-05-03 21:27 25.78059 -80.44484 2337 ft 195 kts 87°
2026-05-03 21:27 25.78122 -80.42988 2097 ft 193 kts 87°
2026-05-03 21:28 25.78184 -80.41530 1849 ft 183 kts 87°
2026-05-03 21:28 25.78241 -80.40198 1631 ft 161 kts 87°
2026-05-03 21:28 25.78292 -80.39007 1418 ft 150 kts 87°
2026-05-03 21:28 25.78340 -80.37870 1224 ft 146 kts 87°
2026-05-03 21:29 25.78387 -80.36757 1040 ft 144 kts 87°
2026-05-03 21:29 25.78433 -80.35663 850 ft 142 kts 87°
2026-05-03 21:29 25.78479 -80.34576 677 ft 140 kts 87°
2026-05-03 21:29 25.78524 -80.33515 489 ft 138 kts 86°
2026-05-03 21:30 25.78569 -80.32458 322 ft 137 kts 86°
2026-05-03 21:30 25.78613 -80.31413 123 ft 134 kts 88°
2026-05-03 21:30 25.78659 -80.30402 17 ft 120 kts 88°
2026-05-03 21:30 25.78687 -80.29643 15 ft 74 kts 87°
2026-05-03 21:31 25.78703 -80.29220 16 ft 45 kts 88°
2026-05-03 21:31 25.78722 -80.28899 15 ft 27 kts 81°
2026-05-03 21:31 25.78761 -80.28741 15 ft 19 kts 54°
2026-05-03 21:31 25.78841 -80.28678 15 ft 8 kts 12°
2026-05-03 21:32 25.78905 -80.28683 15 ft 10 kts 355°
2026-05-03 21:32 25.78989 -80.28688 15 ft 13 kts 358°
2026-05-03 21:32 25.79090 -80.28693 14 ft 15 kts 357°
2026-05-03 21:32 25.79194 -80.28660 14 ft 17 kts 34°
2026-05-03 21:33 25.79289 -80.28606 15 ft 14 kts 357°
2026-05-03 21:33 25.79356 -80.28680 15 ft 15 kts 301°
2026-05-03 21:33 25.79410 -80.28781 15 ft 13 kts 308°
2026-05-03 21:33 25.79487 -80.28810 15 ft 10 kts
2026-05-03 21:34 25.79553 -80.28790 17 ft 10 kts 41°
2026-05-03 21:34 25.79581 -80.28713 15 ft 11 kts 78°
2026-05-03 21:34 25.79597 -80.28622 15 ft 13 kts 77°
2026-05-03 21:34 25.79618 -80.28530 17 ft 12 kts 77°
2026-05-03 21:35 25.79626 -80.28446 15 ft 11 kts 89°
2026-05-03 21:35 25.79629 -80.28357 15 ft 12 kts 88°
2026-05-03 21:35 25.79632 -80.28262 15 ft 12 kts 87°
2026-05-03 21:35 25.79634 -80.28186 15 ft 9 kts 94°
2026-05-03 21:36 25.79619 -80.28128 15 ft 4 kts 110°
2026-05-03 21:36 25.79606 -80.28101 16 ft 4 kts 134°
2026-05-03 21:36 25.79592 -80.28098 15 ft 3 kts 179°
2026-05-03 21:36 25.79574 -80.28106 15 ft 2 kts 210°
2026-05-03 21:37 25.79563 -80.28114 15 ft 1 kts 211°
2026-05-03 21:37 25.79559 -80.28116 15 ft 1 kts 211°
2026-05-03 21:37 25.79557 -80.28118 15 ft 0 kts 211°